Temp
8 8 8 8 8 9 9 9 9 9 9 9 9 11 11 11 12 13 13 13 13 13 13 13 13 12 12 12 12 11 11 11 12 12 12 11 12 12
8 8 8 8 8 9 9 9 9 9 8 8 9 9 10 11 11 12 12 12 12 12 13 12 12 12 11 11 11 11 11 11 11 11 11 11 11 11
7 8 8 8 8 8 9 9 9 9 8 8 9 9 10 10 11 11 12 12 12 13 12 12 11 12 11 10 11 11 11 10 11 11 12 12 11 11
7 8 8 8 8 9 8 8 8 9 8 8 8 9 9 10 10 10 11 11 11 12 13 12 12 12 11 11 11 11 11 11 10 11 11 11 11 11
8 8 8 7 8 8 8 8 8 8 8 8 8 9 9 10 10 10 10 10 11 11 11 12 11 12 12 11 11 11 11 11 10 10 11 11 11 11
8 8 8 7 7 8 8 8 8 8 8 8 8 8 9 9 9 9 9 10 10 10 11 11 11 11 11 11 10 10 10 11 10 10 10 10 10 10
7 7 6 6 6 7 8 8 8 8 8 8 8 8 8 9 9 8 9 9 9 9 9 10 10 10 10 10 10 10 10 10 10 10 10 10 10 10
6 7 6 6 6 7 7 8 8 8 8 8 8 8 8 8 8 8 8 8 8 9 9 9 9 9 9 10 10 10 10 10 10 10 10 11 10 10
5 6 5 6 6 7 7 7 8 8 8 8 7 8 7 7 7 8 8 8 8 9 9 8 8 8 8 8 8 9 10 10 10 10 10 10 10 9
5 5 5 6 6 7 7 7 7 7 7 8 7 7 7 7 7 7 8 7 8 8 8 8 8 8 8 8 8 8 8 8 7 7 7 7 8 8
5 5 5 6 6 7 7 6 7 7 7 6 7 7 7 7 8 7 8 7 8 7 7 7 7 7 6 5 5 5 5 6 6 6 5 5 5 6
4 4 4 5 6 7 6 5 5 5 5 5 6 6 6 7 7 7 7 7 7 7 6 6 5 5 4 3 4 4 4 4 4 5 4 3 3 4
4 4 4 4 5 6 6 5 5 4 4 4 4 4 4 4 5 6 6 6 5 6 5 5 4 3 4 2 2 3 3 3 4 3 3 4 4 4
3 4 3 4 3 4 4 4 4 3 3 3 3 4 4 4 4 4 4 4 5 4 3 4 3 3 4 2 2 1 2 2 2 2 2 3 3 3
3 3 3 3 2 1 2 2 3 3 3 3 3 4 4 4 4 4 4 4 4 4 4 3 3 4 4 4 3 2 2 1 1 1 2 2 2 2
3 2 2 2 2 2 2 2 2 2 2 2 3 3 3 3 2 3 3 2 3 3 2 2 3 2 3 2 2 1 1 1 0 0 1 1 1 2
2 2 2 2 1 1 1 2 1 2 2 2 2 2 2 2 2 2 1 2 2 2 2 2 2 2 2 2 1 1 0 -0 -1 -0 -0 0 1 1
1 1 1 1 1 1 1 1 1 1 1 1 1 0 1 1 1 1 1 1 1 1 1 1 0 0 -0 -1 -1 -2 -2 -2 -2 -2 -2 -1 -0 -1
1 0 1 1 0 0 0 -0 0 0 -0 -0 -0 -0 -0 0 -0 -0 -0 -1 -0 -0 -0 -0 -1 -1 -1 -1 -4 -5 -5 -4 -4 -4 -4 -4 -2 -2
0 -0 -0 -0 -0 -0 -0 -0 -1 -1 -1 -1 -1 -1 -1 -1 -1 -2 -2 -2 -2 -2 -2 -2 -2 -2 -2 -3 -4 -6 -6 -5 -5 -5 -5 -4 -4 -3
-0 -0 -1 -1 -1 -1 -1 -1 -1 -2 -2 -2 -2 -2 -2 -3 -3 -3 -3 -3 -4 -4 -4 -3 -3 -3 -3 -4 -4 -5 -5 -6 -5 -5 -6 -6 -6 -4
-0 -1 -1 -1 -1 -1 -1 -2 -2 -2 -3 -3 -3 -3 -4 -4 -4 -4 -4 -4 -5 -5 -5 -5 -5 -5 -5 -5 -5 -6 -6 -6 -7 -7 -7 -8 -8 -8
-1 -1 -1 -1 -2 -2 -2 -3 -3 -3 -3 -3 -4 -4 -5 -5 -5 -5 -5 -6 -6 -6 -6 -6 -6 -7 -6 -6 -6 -6 -6 -6 -6 -5 -5 -7 -7 -7
Height
1435 1436 1436 1436 1437 1437 1438 1438 1438 1432 1427 1431 1432 1436 1437 1437 1437 1439 1440 1440 1443 1445 1447 1449 1451 1452 1454 1457 1457 1460 1464 1468 1470 1471 1472 1472 1474 1475
1429 1428 1428 1428 1428 1428 1428 1429 1429 1426 1417 1424 1423 1426 1427 1427 1428 1428 1429 1431 1432 1435 1437 1439 1441 1443 1445 1448 1451 1453 1454 1457 1459 1461 1462 1464 1465 1467
1422 1421 1419 1419 1417 1418 1418 1418 1418 1418 1412 1414 1415 1416 1416 1416 1417 1418 1420 1421 1423 1425 1426 1428 1431 1433 1435 1439 1442 1443 1444 1445 1449 1451 1453 1454 1455 1457
1415 1413 1412 1411 1410 1408 1408 1409 1409 1409 1407 1405 1407 1407 1406 1406 1406 1408 1409 1411 1413 1416 1418 1419 1421 1423 1426 1429 1431 1434 1435 1436 1438 1440 1441 1442 1445 1447
1408 1405 1403 1402 1400 1400 1400 1400 1400 1400 1400 1398 1397 1399 1397 1396 1396 1397 1399 1401 1403 1406 1408 1409 1412 1414 1416 1419 1422 1424 1426 1427 1429 1430 1432 1433 1434 1436
1402 1398 1394 1392 1390 1390 1390 1390 1392 1392 1391 1390 1390 1390 1390 1386 1388 1388 1387 1389 1392 1396 1400 1401 1403 1405 1407 1409 1411 1414 1415 1418 1419 1419 1420 1422 1423 1425
1395 1391 1385 1382 1379 1381 1381 1381 1384 1383 1383 1383 1383 1382 1383 1382 1381 1382 1379 1382 1383 1386 1389 1393 1396 1397 1398 1400 1401 1402 1405 1407 1407 1408 1410 1411 1413 1414
1388 1383 1377 1374 1372 1372 1373 1373 1376 1375 1374 1376 1376 1375 1375 1376 1375 1374 1376 1376 1379 1381 1382 1384 1388 1388 1390 1391 1392 1394 1396 1396 1397 1397 1399 1400 1402 1404
1383 1377 1371 1368 1366 1366 1365 1366 1366 1367 1368 1369 1369 1369 1370 1371 1372 1370 1371 1373 1373 1375 1377 1379 1380 1382 1383 1383 1384 1385 1386 1385 1386 1385 1388 1390 1393 1395
1379 1374 1368 1363 1361 1360 1360 1360 1360 1360 1361 1362 1362 1362 1363 1364 1364 1365 1366 1367 1367 1369 1370 1372 1373 1375 1376 1376 1377 1378 1379 1378 1377 1378 1379 1382 1385 1388
1375 1371 1367 1361 1357 1354 1354 1353 1352 1353 1353 1355 1356 1356 1355 1356 1357 1359 1359 1360 1360 1362 1363 1365 1367 1368 1370 1371 1372 1373 1375 1374 1376 1378 1381 1382 1383 1386
1370 1368 1365 1362 1358 1355 1352 1350 1348 1348 1348 1348 1349 1349 1347 1347 1348 1349 1351 1352 1353 1353 1356 1360 1360 1362 1366 1368 1370 1371 1372 1372 1374 1376 1380 1382 1383 1386
1366 1364 1362 1360 1357 1355 1353 1350 1349 1347 1346 1346 1347 1346 1344 1343 1342 1343 1344 1346 1348 1348 1349 1353 1356 1358 1361 1364 1367 1368 1370 1372 1370 1376 1379 1381 1382 1384
1360 1359 1358 1357 1356 1353 1352 1351 1350 1349 1348 1347 1347 1347 1346 1345 1345 1345 1345 1347 1347 1348 1350 1353 1355 1358 1360 1362 1365 1365 1368 1370 1372 1375 1378 1379 1381 1383
1355 1354 1354 1353 1353 1352 1351 1351 1350 1350 1349 1348 1347 1346 1346 1346 1346 1347 1347 1348 1349 1350 1352 1354 1356 1358 1360 1361 1362 1364 1366 1369 1370 1373 1375 1377 1379 1380
1349 1350 1350 1350 1350 1350 1349 1349 1349 1348 1348 1348 1346 1346 1346 1346 1347 1347 1348 1349 1350 1351 1352 1354 1356 1358 1359 1360 1361 1363 1365 1367 1368 1370 1371 1372 1372 1372
1345 1345 1346 1346 1346 1347 1347 1347 1347 1347 1347 1347 1346 1346 1347 1347 1348 1347 1348 1350 1351 1352 1353 1355 1356 1357 1358 1359 1360 1362 1363 1364 1366 1367 1367 1367 1367 1369
1340 1340 1341 1342 1343 1345 1346 1346 1346 1346 1346 1346 1346 1346 1347 1348 1348 1348 1349 1350 1351 1352 1352 1354 1355 1356 1356 1357 1359 1359 1360 1361 1362 1362 1363 1362 1363 1364
1334 1336 1337 1339 1340 1341 1343 1345 1345 1345 1346 1346 1346 1347 1347 1348 1348 1349 1350 1351 1351 1351 1351 1352 1354 1355 1355 1355 1357 1358 1358 1358 1358 1358 1358 1358 1357 1358
1329 1332 1334 1335 1337 1338 1340 1342 1344 1344 1344 1345 1346 1346 1347 1347 1348 1348 1349 1349 1349 1350 1350 1351 1352 1351 1352 1354 1355 1356 1356 1356 1356 1355 1355 1355 1354 1353
1324 1327 1330 1333 1334 1336 1337 1338 1341 1344 1344 1345 1345 1345 1346 1346 1347 1348 1348 1348 1349 1350 1351 1351 1351 1351 1351 1352 1353 1354 1354 1354 1354 1353 1352 1351 1350 1349
1321 1323 1327 1329 1332 1334 1335 1336 1338 1340 1342 1343 1343 1344 1345 1346 1347 1348 1348 1348 1349 1350 1350 1350 1351 1351 1351 1350 1350 1350 1351 1351 1351 1350 1349 1348 1346 1344
1317 1320 1323 1326 1328 1331 1333 1335 1336 1337 1339 1341 1342 1343 1344 1345 1346 1346 1347 1347 1348 1349 1349 1348 1349 1350 1350 1349 1348 1348 1348 1347 1346 1346 1347 1345 1343 1342
Wind_Speed
29 30 32 34 37 38 39 40 38 35 38 33 35 39 39 42 43 43 45 45 43 44 40 36 38 40 41 41 39 40 43 43 42 42 40 36 36 36
25 28 33 36 38 39 40 40 41 42 43 35 40 36 39 41 40 39 40 37 37 37 38 38 39 40 40 41 40 41 42 44 44 43 41 41 40 38
26 27 30 31 36 37 37 38 37 39 42 38 38 37 36 39 39 37 36 37 33 31 34 37 36 36 36 36 36 34 37 42 48 47 47 46 45 41
24 28 31 30 33 33 33 37 36 36 41 40 38 37 37 36 38 41 40 41 42 40 37 31 32 33 33 34 34 34 33 35 39 39 37 39 44 44
24 29 31 33 36 34 33 32 32 33 34 37 37 35 36 36 34 37 40 39 37 34 34 33 34 34 35 35 37 35 36 37 37 41 42 41 40 40
27 29 29 31 38 34 36 34 31 32 32 34 34 34 27 37 33 35 39 40 39 32 32 30 30 32 34 37 38 39 37 39 39 41 41 40 41 42
27 29 27 26 27 33 35 33 30 32 31 31 31 31 32 33 29 29 30 31 26 27 28 30 29 29 28 29 30 31 40 42 41 40 40 40 40 41
27 28 25 21 19 24 30 30 31 34 27 27 29 28 27 27 25 24 18 17 25 24 27 27 24 27 25 26 29 29 30 35 38 39 39 39 39 37
24 26 21 18 19 22 22 23 25 26 27 30 28 27 25 23 23 20 16 20 23 22 19 19 22 24 26 26 26 28 30 32 37 39 39 36 38 34
19 19 18 17 17 20 22 22 24 23 27 31 31 30 31 28 26 23 25 23 24 26 23 23 24 24 24 22 25 25 25 21 15 13 17 24 29 34
16 14 13 11 9 11 14 18 20 23 26 27 28 30 32 31 29 28 25 25 27 27 26 24 22 21 18 16 16 12 13 12 11 10 8 10 12 12
16 15 14 11 9 6 4 4 9 12 13 14 15 17 20 23 27 23 24 24 30 24 21 19 19 19 11 13 13 12 11 13 11 8 10 10 10 9
17 16 15 13 10 5 4 5 5 4 5 3 2 1 0 3 7 12 13 12 15 14 15 18 19 20 11 17 15 13 11 10 9 10 11 10 12 14
17 16 15 13 9 6 3 2 3 4 5 5 5 6 6 8 10 10 9 7 6 7 12 12 17 17 11 17 12 12 11 9 10 11 11 12 13 14
17 15 14 12 11 11 10 9 8 7 8 7 6 6 5 3 4 3 4 4 6 8 8 7 12 15 10 10 14 14 13 12 13 14 16 16 17 17
17 15 14 13 11 10 9 9 9 8 8 7 7 5 4 4 4 5 4 5 4 6 7 7 7 9 9 9 9 11 12 9 11 12 11 12 13 13
16 16 15 13 11 9 8 7 6 6 5 5 5 5 5 5 5 6 6 5 6 8 8 7 7 7 8 9 9 9 9 9 9 10 10 12 12 12
18 17 15 13 11 10 9 8 7 7 6 6 5 5 5 5 4 5 5 6 6 6 6 5 5 6 7 6 5 5 6 5 6 8 10 12 12 13
21 19 16 14 12 11 9 8 7 7 6 5 5 5 5 4 4 4 4 4 4 3 3 3 4 5 6 7 6 4 4 5 7 10 12 14 17 15
21 19 17 15 14 12 10 8 8 7 6 6 6 5 5 4 4 5 5 4 4 3 3 3 2 3 4 5 4 4 6 8 10 10 10 11 14 14
23 20 17 16 14 12 11 10 9 8 7 7 7 6 5 5 5 5 4 4 3 3 2 1 1 2 1 0 1 3 4 6 7 9 11 13 13 13
22 19 18 16 14 13 12 12 11 9 7 7 7 6 6 5 4 4 3 3 3 3 2 1 0 1 2 3 4 5 5 4 6 8 9 11 12 11
22 19 18 16 15 14 13 11 10 8 8 7 7 6 6 5 4 3 3 2 1 1 1 0 2 3 4 6 8 9 11 11 10 11 8 10 13 16
Wind_Direction
271 268 264 262 262 263 265 266 266 269 270 271 269 268 267 265 265 263 261 258 257 262 258 255 262 257 258 258 257 253 251 256 256 258 255 256 263 260
273 272 269 265 264 264 264 263 264 267 270 272 277 274 266 266 267 264 260 257 256 254 256 257 257 255 256 258 259 259 255 253 253 254 255 262 266 254
278 279 273 273 265 266 263 262 266 265 267 273 278 279 273 264 263 261 258 252 249 254 254 252 253 248 246 252 257 264 264 257 254 259 261 262 259 253
283 279 278 276 271 266 259 265 270 268 271 272 278 280 276 272 265 260 256 253 258 259 249 255 253 249 248 250 253 260 266 263 258 259 260 260 255 254
299 290 280 269 273 265 264 264 267 271 273 274 277 279 277 272 266 261 256 252 255 253 255 255 249 246 250 254 254 259 260 261 258 257 258 258 259 255
303 301 289 279 259 261 265 263 268 270 272 273 274 276 284 263 259 258 256 249 250 250 254 253 257 257 254 252 253 255 259 259 261 259 260 260 260 261
303 306 296 293 279 248 261 258 264 269 267 269 272 275 276 281 281 285 256 252 253 244 254 252 257 249 250 252 259 260 258 256 261 260 261 260 264 263
304 305 301 282 276 252 256 255 257 263 261 263 270 272 278 278 272 262 260 257 260 257 249 254 255 253 255 264 265 269 270 267 264 261 259 260 258 253
305 311 308 287 273 264 262 261 258 246 251 259 257 268 274 275 265 261 262 261 262 259 251 258 256 259 259 267 272 272 276 271 269 264 259 255 249 250
303 320 317 298 279 267 263 257 258 256 252 247 256 265 268 269 259 264 276 273 267 253 252 258 264 255 260 262 265 270 271 273 265 259 248 235 227 217
292 308 330 343 315 284 263 252 255 254 255 257 261 267 269 268 262 267 263 259 249 252 253 254 249 242 239 236 241 231 232 232 224 214 182 172 173 178
281 287 302 321 346 13 13 302 270 259 254 256 267 266 273 270 265 257 253 248 247 233 234 231 228 212 184 192 190 183 178 176 168 189 176 174 176 193
273 277 284 296 305 314 18 56 76 94 115 97 99 98 247 260 240 230 227 225 235 228 211 211 208 191 180 163 163 171 179 182 179 191 205 212 216 218
265 269 274 271 272 267 265 262 135 137 149 145 146 134 112 99 95 102 110 128 135 166 171 198 196 189 175 165 166 179 189 191 198 210 218 230 236 239
258 259 260 256 252 248 238 239 236 231 237 235 221 203 196 184 149 152 145 145 147 151 158 166 185 192 203 207 194 191 197 213 223 226 231 238 239 240
249 248 242 245 247 246 238 239 236 229 227 230 217 195 174 162 161 162 157 148 146 151 157 167 182 192 202 195 196 203 210 214 221 227 230 233 241 243
235 230 229 229 231 235 234 222 214 204 193 182 167 155 149 146 154 143 150 168 171 148 151 158 167 172 176 181 188 198 202 212 228 242 249 253 263 270
226 224 222 222 219 221 223 219 208 202 193 183 175 172 171 165 165 159 161 158 162 159 159 159 161 168 163 143 170 188 204 222 253 272 282 282 276 276
222 224 222 220 217 217 219 226 223 213 204 191 184 180 182 184 174 170 174 172 169 172 168 176 183 184 196 186 195 217 248 275 281 284 289 287 287 289
218 221 221 218 216 211 212 215 218 205 196 192 190 193 197 197 200 196 183 175 172 173 160 166 150 146 155 164 177 204 287 295 294 295 295 285 289 295
215 214 217 217 213 209 204 197 201 205 200 204 207 203 197 187 181 179 171 149 146 144 136 125 79 98 104 272 211 190 250 280 287 298 307 309 311 306
216 213 214 210 208 206 201 198 200 204 205 205 205 194 183 177 168 166 157 147 152 152 141 119 34 335 326 319 310 302 292 253 271 285 293 299 299 291
212 211 207 204 201 203 202 200 200 201 199 191 184 180 175 174 176 178 180 183 179 181 200 347 305 305 305 304 304 301 302 309 302 281 262 278 278 279